Weather in Ust-Muta

Russia / Altai Republic     51°13′56″N   84°45′15″E
temp.,
°C
wind,
m/s
gust,
m/s
humid.,
%
clouds,
%
prec.,
mm/h
press.,
hPa
HPBL,
m
17 june, thu
thu1701:00+10s11930 0.0 101513
04:00+9s22930 0.0 101527
07:00+11s23870 0.0 101482
10:00+19sse115640 0.0 1012629
13:00+22ne124393 0.0 10112216
16:00+12se339374 2.1 101363
19:00+16sse0072100 2.4 1012178
22:00+11ssw11850 0.0 101314
18 june, fri
fri1801:00+10s3289100 0.0 101339
04:00+9s22885 0.0 101233
07:00+12s34800 0.0 1011101
10:00+19sse11530 0.0 1009762
13:00+21ese115089 0.0 10081425
16:00+21n115155 0.0 1007756
19:00+20nw016764 0.0 1006112
22:00+14ssw11835 0.0 100611
19 june, sat
sat1901:00+12s33832 0.0 100641
04:00+11s35811 0.0 100670
07:00+13s36776 0.0 1005129
10:00+20s465448 0.0 1003696
13:00+24ssw564195 0.0 10012664
16:00+19sse135626 0.0 1000191
19:00+14ne239449 2.1 100293
22:00+12n1199100 2.5 100435
20 june, sun
sun2001:00+11ssw1198100 4.0 100321
04:00+9n2310096 0.1 1005269
07:00+5n34100100 0.5 1009411
10:00+4n2399100 1.1 1012310
13:00+5n2396100 1.3 1013432
16:00+6ene2187100 0.1 1013442
19:00+10wsw036136 0.5 1012798
22:00+4ssw22761 0.1 101516
21 june, mon
mon2101:00+2s34820 0.1 101662
04:00+2s3786100 0.0 1015119
07:00+4sse49751 0.0 1013264
10:00+12s7124691 0.0 10072022
13:00+14ssw5104695 0.0 10061962
16:00+16s6114467 0.0 10042204
19:00+13sse61258100 0.0 10041389
22:00+10sse71366100 0.0 10041031